Theta_e
327 326 325 325 323 322 321 320 319 317 316 314 313 312 312 313 314 315 316 316 315 315 316 316 316 317 310 300 300 309 311 311 312 311 306 304 302 302 298 298 298 297 298 298 299 298 298
328 327 326 325 324 323 322 321 320 318 317 315 314 313 313 313 314 314 315 316 316 315 315 316 316 316 306 295 308 308 308 309 309 308 305 305 303 303 299 298 297 298 298 298 298 298 297
328 327 326 326 325 323 322 322 321 320 318 317 315 314 313 313 313 314 315 316 316 315 315 315 315 307 302 301 308 309 308 308 308 308 304 306 306 302 301 297 299 298 295 297 297 297 296
326 327 327 326 325 324 322 322 321 321 320 318 317 316 314 313 313 313 314 315 316 315 314 314 312 306 300 307 310 306 308 307 308 308 307 307 306 303 301 300 298 295 295 293 296 297 297
320 320 324 325 325 324 323 322 321 321 320 318 317 316 315 314 314 313 314 316 315 313 312 312 306 304 298 308 303 306 307 305 307 307 306 305 305 301 299 297 295 296 292 293 294 295 295
316 317 318 319 322 324 323 322 321 321 320 318 317 316 315 314 314 314 315 313 313 308 307 304 303 299 299 298 303 304 307 306 304 305 303 303 301 298 297 295 292 293 292 293 291 293 293
313 314 315 316 317 318 323 322 321 321 320 319 317 316 315 314 313 313 313 308 303 301 302 299 298 297 297 301 304 302 305 303 303 301 296 299 295 292 296 296 295 293 291 291 295 293 290
309 311 312 313 314 315 316 321 322 322 321 319 318 317 316 315 313 313 310 301 301 303 296 301 298 298 300 302 296 299 304 298 298 293 296 294 291 295 294 293 292 291 290 292 294 291 290
309 308 309 310 311 313 314 315 317 322 321 319 318 317 316 315 313 310 307 303 308 306 296 296 298 297 298 300 296 297 301 298 294 293 294 293 293 293 292 291 290 291 290 290 288 292 293
306 308 308 308 309 310 311 313 313 315 318 319 318 317 316 314 306 308 303 306 308 307 294 294 293 296 298 300 295 299 301 298 294 292 293 293 294 291 291 290 291 289 290 289 288 289 288
303 305 305 307 307 308 309 310 312 313 314 317 318 317 316 313 305 302 304 308 308 305 283 294 291 299 298 296 294 294 299 297 293 292 292 291 290 289 289 290 291 289 291 289 289 288 287
302 303 303 304 305 307 307 308 309 311 312 312 315 317 315 309 308 307 308 307 306 289 281 288 292 291 291 292 292 295 296 298 296 292 292 290 292 291 291 291 291 292 289 288 289 288 286
303 303 302 302 303 304 307 307 308 309 311 311 312 315 312 309 302 308 308 304 286 283 290 287 287 291 291 289 290 292 291 289 290 287 288 287 289 290 292 289 291 289 288 287 286 285 288
301 301 301 302 302 302 304 307 306 307 309 310 311 313 311 309 306 306 305 292 281 287 291 289 289 290 287 289 289 290 289 288 291 290 290 288 286 287 291 290 290 288 288 292 286 286 287
300 300 301 301 302 302 303 303 306 306 306 309 311 312 309 306 307 305 296 283 285 291 291 289 288 286 286 288 288 289 288 289 292 291 291 289 288 288 288 290 289 287 286 288 285 278 283
300 300 299 299 300 301 302 302 303 305 306 308 307 305 303 306 306 301 288 286 288 292 291 291 288 290 285 286 285 286 287 292 291 292 295 293 286 284 286 289 288 287 288 285 288 284 283
299 300 299 299 299 301 302 301 302 303 306 307 306 299 304 306 305 294 284 286 291 294 292 290 291 289 290 286 287 285 288 291 293 291 294 291 295 282 285 285 285 284 284 284 288 285 287
299 298 299 298 298 299 301 303 301 302 305 304 303 288 303 305 287 285 285 290 295 294 294 291 290 290 290 290 287 287 287 289 292 291 287 293 292 284 286 285 287 286 287 287 290 285 283
299 299 298 298 298 298 300 302 302 302 303 302 296 297 300 301 284 284 288 292 294 293 292 291 290 291 292 289 287 289 290 289 290 290 289 290 290 283 284 285 284 283 285 287 287 289 283
299 299 299 298 298 297 299 302 303 301 303 302 296 286 291 292 290 288 286 287 288 295 292 293 292 293 290 288 290 288 288 288 289 288 291 292 287 288 288 291 288 281 284 286 288 287 287
298 298 298 298 297 297 298 301 302 302 302 301 295 286 288 284 285 288 290 290 287 286 293 293 290 290 290 286 286 286 288 287 288 289 288 288 286 285 284 283 286 288 284 284 284 289 289
297 297 297 297 297 297 297 299 301 302 302 296 289 286 289 287 291 287 287 286 288 290 290 288 288 291 291 288 289 288 287 286 287 286 286 288 285 284 283 282 282 283 286 284 285 285 284
297 297 297 297 296 297 296 297 299 302 302 293 296 296 292 289 289 287 286 288 288 291 293 294 291 290 288 291 294 293 293 292 294 288 286 286 285 285 285 280 284 283 283 284 286 287 288
297 296 296 295 296 296 296 296 298 299 301 298 294 295 288 284 287 287 289 291 289 290 289 293 294 291 293 297 297 295 293 289 289 288 290 285 287 287 284 283 280 289 290 290 288 288 289
296 296 296 296 296 296 297 296 297 297 299 298 297 290 289 284 287 287 288 288 290 291 291 292 294 296 297 294 286 284 284 286 287 287 285 288 287 286 283 283 289 290 288 288 287 291 294
296 296 296 296 296 296 297 297 296 296 298 296 296 295 288 285 285 289 287 288 286 288 287 289 296 297 294 287 284 282 281 285 284 285 287 286 287 285 283 281 280 291 294 294 294 288 299
296 296 295 295 295 296 296 296 296 297 297 297 296 298 289 284 288 287 286 287 290 289 287 287 289 288 292 284 283 283 283 289 284 283 280 281 283 281 282 283 288 295 294 295 286 291 295
295 294 295 295 295 295 295 295 296 296 297 295 294 299 291 286 288 290 291 288 290 290 286 287 288 286 285 283 284 285 284 287 286 288 284 283 283 283 284 283 281 291 291 291 297 292 294
294 294 294 295 294 294 295 296 296 296 296 297 291 297 297 288 287 291 293 294 293 294 291 292 290 288 290 286 286 287 285 287 287 283 286 284 289 287 288 289 294 293 295 297 297 295 292
Wind_Speed
16 15 14 13 13 12 11 10 8 7 6 6 5 6 6 7 8 9 7 7 7 8 8 9 8 7 4 6 4 4 3 1 4 4 6 6 7 4 5 2 4 7 3 2 2 4 6
17 15 14 14 14 12 12 11 10 8 7 7 6 7 7 7 8 9 9 9 9 8 8 7 7 7 4 7 3 1 1 1 3 6 5 6 4 2 1 2 6 2 4 5 3 6 6
16 15 15 15 14 13 12 12 11 10 9 8 7 8 8 8 8 9 10 11 11 11 8 7 7 4 4 5 1 1 2 0 1 3 4 2 2 5 2 2 1 4 6 6 7 4 4
9 16 15 14 14 13 13 13 12 11 10 9 8 7 8 8 8 10 11 12 12 11 7 4 4 4 6 3 2 2 2 4 2 1 2 3 2 4 2 2 4 6 4 4 6 3 3
19 20 5 12 14 14 14 13 13 12 11 11 9 8 8 8 8 9 11 12 11 6 5 2 4 5 4 2 3 1 1 4 5 4 4 3 1 0 3 5 5 7 5 6 3 2 3
18 19 17 16 10 15 13 13 13 13 12 10 10 10 8 7 7 9 13 9 2 3 4 3 2 6 4 2 3 2 1 3 1 6 4 4 4 5 6 7 4 3 5 4 7 4 6
15 17 17 19 18 21 12 13 14 14 13 12 11 10 8 8 5 6 9 2 4 5 6 7 2 3 2 2 3 2 1 5 5 5 6 3 7 10 8 6 5 5 6 9 8 4 5
14 15 15 16 17 19 18 7 15 15 15 13 12 11 9 8 5 3 5 4 4 3 8 12 5 4 2 2 4 5 3 7 7 7 4 4 10 3 4 1 3 4 6 9 5 1 4
14 13 15 16 16 17 16 16 17 14 15 15 14 12 10 6 2 3 6 6 3 3 6 5 6 7 4 8 4 11 9 3 6 8 10 9 3 3 3 4 5 6 6 5 4 9 6
12 14 14 14 15 15 15 16 17 18 11 17 15 13 11 8 2 2 4 1 1 2 5 7 7 5 6 6 5 3 3 3 4 11 6 6 5 4 4 6 5 8 2 1 3 6 4
12 11 11 14 13 13 13 14 16 15 16 6 13 16 15 13 2 3 2 2 2 3 6 6 4 2 4 8 7 3 1 3 7 7 5 3 6 5 6 1 3 3 1 1 2 2 4
9 10 11 11 12 13 13 13 13 14 13 14 8 13 16 4 0 2 4 3 2 2 13 3 4 6 9 5 4 5 4 3 3 4 2 4 1 1 3 4 2 7 2 1 1 1 1
10 11 9 10 11 12 13 12 12 13 14 13 12 8 12 7 4 5 3 1 3 8 3 3 4 7 12 8 6 8 11 10 8 6 6 2 4 2 3 4 3 4 4 3 3 2 2
9 11 9 11 11 10 11 11 11 12 13 12 10 3 6 3 5 5 2 4 8 4 7 3 2 5 8 10 6 9 9 10 15 3 4 9 5 10 9 3 2 8 3 3 4 3 2
9 9 9 9 11 12 12 10 11 12 12 14 11 1 3 5 9 4 4 8 10 5 3 8 6 4 8 6 3 9 11 9 9 14 8 7 2 3 0 1 1 5 5 2 7 2 3
11 10 9 10 10 12 12 13 11 11 11 11 4 1 3 11 8 9 5 14 8 4 4 5 7 10 10 10 9 12 14 9 8 16 2 5 4 1 3 2 1 4 1 4 0 3 4
11 13 7 9 11 12 13 12 13 10 10 9 3 3 2 11 3 7 6 9 11 8 4 6 3 4 8 8 13 9 5 4 13 9 13 4 2 3 2 9 9 6 4 2 1 1 3
13 10 11 10 10 12 13 12 12 13 9 6 3 3 4 8 4 3 4 7 8 9 6 5 4 5 7 7 10 11 11 6 4 11 11 7 4 5 4 1 3 4 3 7 4 5 0
12 11 11 12 13 12 13 17 14 14 7 2 3 2 1 2 5 4 4 12 8 9 13 11 10 5 1 4 6 14 8 4 3 6 8 10 5 5 1 1 0 7 7 5 3 2 7
14 13 13 12 12 12 13 21 15 15 11 4 2 4 2 2 1 3 5 6 8 10 9 9 10 16 9 4 5 4 4 2 1 0 4 2 3 5 10 1 8 8 10 15 5 4 6
19 16 16 14 13 13 10 17 16 15 12 5 5 6 4 7 9 6 9 6 12 6 13 10 6 19 22 13 1 4 1 2 1 2 0 3 3 3 2 2 4 3 11 20 13 9 8
16 16 15 14 15 13 8 11 11 17 14 5 4 4 1 2 7 14 11 7 11 16 9 6 15 16 20 15 17 2 2 1 2 2 4 3 1 1 3 0 1 5 7 16 15 2 7
17 16 15 15 15 14 13 8 10 19 13 3 4 1 2 8 8 8 16 24 17 8 9 17 17 14 11 24 15 3 6 6 6 7 9 5 5 3 4 1 2 13 14 19 12 8 9
17 15 15 17 15 14 14 12 10 12 16 5 1 3 4 8 11 15 16 19 21 16 20 9 16 10 4 7 3 4 6 2 2 3 4 4 4 3 1 1 12 3 4 20 20 15 18
19 18 17 15 14 14 16 15 14 10 15 7 3 3 4 11 13 17 23 19 14 9 20 17 13 7 8 5 3 5 4 5 10 7 9 6 4 3 6 8 13 3 5 11 14 16 18
18 19 18 16 15 15 17 17 18 15 14 8 5 4 3 3 13 20 20 19 14 9 3 6 3 11 7 4 4 9 8 5 8 6 6 6 0 3 2 10 17 1 12 11 6 10 7
20 20 17 16 16 14 13 15 15 19 18 9 5 8 2 4 12 7 14 15 14 13 7 3 6 2 8 6 5 6 6 5 9 11 8 6 4 10 11 9 7 2 4 16 14 3 8
22 15 15 14 15 13 13 15 17 18 21 13 7 9 4 3 7 9 10 13 10 13 11 3 5 2 3 6 5 4 6 7 4 6 11 13 10 9 6 9 21 6 6 13 5 1 5
18 15 16 16 14 12 16 18 19 21 19 19 9 6 7 7 3 4 14 18 19 17 8 11 6 5 8 6 6 3 4 2 3 13 2 10 12 13 13 7 2 13 7 18 3 6 7
Wind_Direction
213 213 214 220 217 218 217 217 218 233 246 252 260 273 287 301 316 319 328 326 326 322 310 306 306 317 273 226 259 119 329 275 185 187 228 216 220 223 234 222 235 241 291 267 293 267 267
210 211 213 217 219 220 217 218 220 218 230 248 251 258 274 292 306 313 320 319 317 314 303 300 301 308 245 247 75 46 9 187 223 207 191 222 268 238 193 230 246 358 258 270 243 262 254
213 210 217 217 218 214 222 218 222 221 220 226 238 254 266 278 295 309 313 315 315 308 293 296 298 275 242 269 307 348 168 101 273 249 194 204 202 238 156 192 185 280 274 220 225 244 261
259 208 220 222 220 215 218 222 222 224 219 216 220 238 254 272 290 304 310 313 311 305 279 283 281 264 268 89 330 220 179 124 144 100 107 116 183 117 300 117 197 251 251 273 127 208 154
25 34 300 234 221 217 217 218 222 225 219 218 216 227 242 262 282 298 304 311 303 284 267 239 240 260 255 130 209 124 265 152 128 108 92 128 200 160 176 234 223 215 281 245 193 172 293
20 26 28 27 358 222 218 219 218 224 222 218 222 223 232 248 271 302 306 302 302 222 197 199 242 259 162 171 121 171 99 153 143 141 142 206 211 225 219 220 254 247 253 220 271 109 254
17 24 23 24 24 24 236 220 220 221 220 216 217 222 228 237 261 300 311 245 213 199 223 231 153 296 147 93 162 186 152 161 158 216 206 187 227 217 236 240 307 285 277 276 291 89 288
10 18 20 20 19 24 18 267 226 221 222 215 212 215 210 231 242 288 289 256 342 18 292 218 226 229 173 231 156 180 213 194 189 201 161 195 236 58 85 173 242 252 271 278 276 51 292
9 8 14 15 13 18 15 11 18 237 222 210 205 206 204 200 238 234 249 259 3 334 259 183 202 211 179 180 214 175 186 194 208 201 204 231 50 123 198 196 210 234 256 299 294 318 243
353 14 12 8 6 9 10 9 10 6 282 221 194 195 185 141 225 153 233 11 321 301 277 218 203 183 163 190 214 86 217 236 183 214 196 250 120 184 202 235 215 260 79 164 299 337 315
329 341 354 4 4 4 6 4 13 4 6 249 206 194 171 165 67 199 52 109 139 265 282 117 150 53 156 206 127 135 48 187 195 157 182 174 175 168 217 255 194 52 142 61 316 337 319
329 333 329 336 353 357 0 3 3 4 356 352 32 202 156 161 175 321 121 119 229 82 242 166 134 170 160 187 134 118 159 67 38 135 86 71 31 280 35 103 58 124 193 163 161 267 289
325 325 329 330 328 341 353 352 356 354 356 352 12 169 154 153 184 132 176 103 65 221 336 186 193 181 199 174 165 181 177 180 166 133 200 137 176 141 195 152 123 216 233 324 334 14 247
303 304 310 327 333 315 322 352 345 348 347 351 332 21 173 177 128 134 238 98 210 232 228 110 123 169 194 159 195 179 173 206 226 235 138 166 241 181 167 267 214 189 264 191 238 273 3
289 302 315 321 317 317 319 310 347 333 340 340 322 226 157 169 144 105 151 193 217 190 130 164 143 177 210 209 202 180 205 218 210 192 181 161 160 110 35 316 278 172 215 29 104 104 278
289 292 287 297 298 301 303 310 310 327 330 341 321 287 211 144 163 132 157 213 227 205 146 163 227 194 189 190 178 198 190 207 212 186 164 196 112 346 95 241 189 271 124 124 337 168 252
278 281 303 293 304 303 306 280 296 293 322 328 254 241 66 137 123 158 190 223 234 219 175 191 241 248 239 186 205 199 221 212 214 188 185 122 142 112 154 206 180 167 191 210 79 262 222
265 278 285 285 290 292 303 286 265 284 316 282 256 228 128 166 126 235 197 195 217 238 181 268 259 251 234 211 205 213 222 236 103 156 181 171 100 158 186 33 325 314 219 195 198 191 204
266 274 276 278 278 292 287 310 243 260 262 281 234 199 50 264 197 200 262 242 240 225 195 225 234 228 11 252 233 208 201 30 149 177 170 176 190 120 163 194 165 225 197 221 105 89 195
259 263 265 273 280 290 306 309 227 233 236 239 201 204 194 199 94 186 196 218 223 229 237 204 253 250 261 238 218 306 237 72 25 3 358 209 165 198 236 160 136 185 199 190 177 152 166
255 256 259 260 271 280 312 317 198 223 222 226 207 224 191 203 205 184 204 214 210 222 204 224 234 237 218 236 49 231 199 152 125 195 295 255 214 184 167 312 301 214 175 184 192 197 179
248 249 254 258 263 271 278 314 282 217 215 233 194 189 206 348 234 197 212 196 226 214 180 194 227 220 223 234 225 254 144 254 253 168 198 215 234 108 267 156 286 273 209 194 207 340 302
241 246 252 258 257 252 258 261 291 243 194 251 230 132 244 210 205 203 218 228 235 222 231 220 216 237 230 226 229 62 305 284 234 181 195 184 157 129 249 351 271 257 186 189 194 205 197
241 249 256 252 253 250 254 242 254 289 239 208 259 257 206 234 222 218 234 228 230 220 235 228 237 218 232 107 106 246 231 282 213 240 169 190 163 148 167 127 230 288 190 183 192 204 212
235 239 254 241 261 266 263 244 242 228 273 238 177 174 258 241 231 231 235 243 238 239 238 236 219 232 145 129 154 186 189 202 204 206 206 202 177 218 223 207 284 241 161 163 183 236 209
242 244 246 239 259 250 244 251 246 235 233 254 239 154 187 307 232 242 237 232 235 227 288 251 195 131 119 168 201 207 199 158 192 171 182 142 274 241 154 228 236 290 171 192 167 250 206
241 241 240 239 249 255 246 257 248 246 230 228 241 193 175 231 258 265 235 239 237 229 235 148 157 175 155 180 222 210 215 194 195 183 169 173 173 207 219 251 279 260 115 144 178 194 199
237 235 241 243 248 256 265 267 266 250 241 225 239 219 210 219 264 250 235 260 243 219 219 175 140 164 173 204 209 200 217 219 212 181 173 180 185 206 197 231 245 126 131 185 168 12 178
233 230 238 238 242 250 262 265 260 253 236 237 235 221 222 242 276 297 261 258 258 275 282 205 220 152 185 202 198 189 231 251 223 227 206 208 207 209 197 240 131 190 179 218 184 170 197